Regional Weather Roundup
Issued by NWS

Home | Current Version | Previous Version | Text Only | Print | Product List | Glossary On
Versions: 1 2 3 4 5 6 7 8 9 10 11 12 13 14 15 16 17 18 19 20 21 22 23 24 25 26 27 28 29 30 31 32 33 34 35 36 37 38 39 40 41 42 43 44 45 46 47 48 49 50
000
ASUS45 KTFX 040719
RWRMT
MONTANA HOURLY WEATHER ROUNDUP
NATIONAL WEATHER SERVICE GREAT FALLS MT
1219 AM MST WED MAR 4 2015

NOTE: "FAIR" INDICATES FEW OR NO CLOUDS BELOW 12000 FEET WITH NO
SIGNIFICANT WEATHER AND/OR OBSTRUCTIONS TO VISIBILITY.

* THESE STATIONS ARE NOT UNDER NWS QUALITY CONTROL. THEY DO NOT
   REPORT WEATHER SUCH AS PRECIPITATION OR FOG.

MTZ001>007-043-040800-
WEST OF THE DIVIDE
CITY           SKY/WX    TMP DP  RH WIND       PRES   REMARKS
KALISPELL      CLEAR     12   9  88 W3        30.15R
MISSOULA       CLOUDY    21  12  68 NW5       30.15S WCI  14
BUTTE          CLEAR      3  -2  79 SE5       30.03R WCI  -7
MULLAN PASS    CLEAR     10   5  80 VRB6      29.99R
* ANACONDA     CLEAR     16   9  74 S3         N/A
* ESSEX        N/A       13  -2  51 E9G19      N/A   WCI   1
* EUREKA APT   PTCLDY    12   7  80 CALM      30.19R
* HAMILTON APT PTCLDY    18  10  71 SE3       30.13R
* LIBBY APT    CLEAR     16  10  77 CALM      30.18R
* LINCOLN      N/A        4  -4  69 N1G6       N/A
* LOOKOUT PASS N/A       13   7  77 N/A        N/A
* POLSON       N/A       14   6  70 N/A        N/A
* RONAN APT    CLEAR     18  12  77 N/A        N/A
* SEELEY LAKE  N/A      N/A N/A N/A N/A        N/A
* THOMP F APT  CLEAR     10  -1  61 NE3        N/A
$$

MTZ008-052>055-040800-
SOUTHWEST MONTANA
CITY           SKY/WX    TMP DP  RH WIND       PRES   REMARKS
BOZEMAN        PTCLDY     1  -4  79 SW6       30.09R WCI -11
DILLON         CLEAR      3  -2  79 SE5       30.03R WCI  -7
* W YELLOWSTON PTCLDY    -1  -8  72 S1         N/A
* THREE FORKS  CLEAR      7  -2  66 N/A        N/A
* BOULDER HILL N/A        4  -3  72 N/A        N/A
* MONIDA PASS  N/A       11   4  73 W10        N/A   WCI  -2
* RAYNOLDS PAS N/A        1   0  95 VRB2       N/A
* WHITEHALL    N/A        9   1  70 NW1        N/A
* WISE RIVER   N/A        9   0  66 E8         N/A   WCI  -3
$$

MTZ009>010-012-014-046-048-049-054-040800-
EAST SLOPES AND CENTRAL MONTANA
CITY           SKY/WX    TMP DP  RH WIND       PRES   REMARKS
CUT BANK       CLOUDY     7   0  73 W7        30.14S WCI  -5
GREAT FALLS    CLOUDY    10   0  64 NW6       30.17R
HELENA         CLEAR     10   3  73 W7        30.13R WCI  -1
MALMSTROM AFB  MOCLDY    12   0  58 NW6       30.19R WCI   2
* CONRAD       CLEAR     12  -4  48 W6         N/A   WCI   2
* DEARBORN     N/A        1  -2  87 S2         N/A
* EAST GLACIER N/A       -5 -10  79 N11        N/A   WCI -23
* MONARCH      N/A        1  -6  72 SW2        N/A
* PENDROY      N/A        5  -3  69 NW6        N/A   WCI  -6
* ROGERS PASS  N/A        1  -5  75 NW2        N/A
* SWEET GRASS  N/A        3 -10  54 W9         N/A   WCI -11
* WHITE SULPH  N/A        5  -4  66 SW1        N/A
$$

MTZ011-013-016-021-035-040-045-047-050-051-040800-
NORTH CENTRAL MONTANA
CITY           SKY/WX    TMP DP  RH WIND       PRES   REMARKS
HAVRE          CLEAR      1  -4  79 W8        30.22R WCI -13
LEWISTOWN      CLOUDY     9  -2  61 NW12      30.09R WCI  -6
* N BAR RANCH  CLOUDY     5 -11  47 NW8       30.05R WCI  -8
* CHINOOK      CLEAR      7  -4  60 W8        30.22R WCI  -6
* FORT BENTON  PTCLDY    12   0  58 W7        30.23R WCI   1
* MALTA APT    CLEAR      7  -6  55 N10G17     N/A   WCI  -7
* CHESTER      N/A        7  -6  55 NW2        N/A
* DENTON       N/A        9  -2  61 W4         N/A
* GEYSER       N/A       10  -2  58 NW18G26    N/A   WCI  -8
* JUDITH GAP   N/A        6  -8  52 NW14       N/A   WCI -11
* LOMA         N/A       10  -2  58 NW6        N/A
$$

MTZ017>020-022>027-061-062-040800-
NORTHEAST MONTANA
CITY           SKY/WX    TMP DP  RH WIND       PRES   REMARKS
GLASGOW        CLEAR      1  -8  65 NW12      30.16R WCI -16
JORDAN         CLEAR      7  -2  66 NW10      30.13R WCI  -7
SIDNEY         CLEAR      0 -11  59 NW6       30.19R WCI -12
WOLF POINT     CLEAR      1  -9  62 NW9       30.19R WCI -14
* BEAVER HILL  N/A        2  -3  79 NW15       N/A   WCI -17
* CIRCLE       N/A        3  -4  72 NE9        N/A   WCI -11
* LINDSAY DVD  N/A       -1  -6  79 NW13G20    N/A   WCI -19
* NAVAJO       N/A       -8 -14  74 NW7        N/A   WCI -23
* PLENTYWOOD A CLEAR     -8 -15  71 NW6       30.12R WCI -21
* POPLAR APT   CLEAR     -2  -9  72 W3        30.20R
* SACO         N/A        2  -3  79 NW9        N/A   WCI -13
* SCOBEY APT   CLEAR     -6 -17  58 NW10       N/A   WCI -23
$$

MTZ028>042-056>058-040800-
SOUTHCENTRAL AND SOUTHEAST MONTANA
CITY           SKY/WX    TMP DP  RH WIND       PRES   REMARKS
BAKER          HAZE       7   0  73 NW24G32   30.05R WCI -14
BILLINGS       FAIR       9  -8  45 W14       30.10R WCI  -7
LIVINGSTON     CLEAR      1  -6  72 NW7       30.06R WCI -12
MILES CITY     CLEAR      9  -2  61 NW10      30.13R WCI  -5
* BIG TIMBER A CLEAR      9  -2  61 W8        30.07R WCI  -3
* FORSYTH APT  CLEAR     12   7  80 W5        30.14R WCI   4
* LAUREL APT   PTCLDY     5  -6  60 N/A        N/A
* ROUNDUP APT  PTCLDY    10 -13  34 N/A        N/A
* ALZADA       N/A        2  -5  72 SW11       N/A   WCI -14
* HYSHAM       N/A       12  -4  48 W10G18     N/A   WCI  -1
* REED POINT   N/A        5  -2  72 SE2        N/A
$$

REGIONAL REPORTS...DAKOTAS
CITY           SKY/WX    TMP DP  RH WIND       PRES   REMARKS
WILLISTON      CLEAR     -4 -13  65 NW14      30.13R WCI -24
DICKINSON      FAIR       3  -8  60 NW14      30.01R WCI -15
BEACH          CLOUDY     0  -2  91 NW14      30.06R WCI -19
CROSBY         CLEAR     -8 -13  78 NW13      30.11R WCI -28
TIOGA          MOCLDY    -6  -9  87 NW17      30.08R WCI -28
WATFORD CITY   CLEAR     -2  -9  72 NW15G23   30.08R WCI -22
BISMARCK       LGT SNOW   3  -2  79 NW7       30.07R VSB 2 1/2 WCI  -9
GRAND FORKS    PTCLDY    -2  -9  72 W12       30.04S WCI -20
FARGO          CLEAR      1  -9  62 W13       30.07S WCI -17
BUFFALO SD     CLEAR      3  -2  79 W12       29.95R WCI -14
RAPID CITY     PTCLDY     0  -8  68 NW6       30.07R WCI -12
$$

REGIONAL REPORTS...WYOMING/IDAHO/WASHINGTON
CITY           SKY/WX    TMP DP  RH WIND       PRES   REMARKS
GILLETTE       PTCLDY     1  -8  65 W9        30.03R WCI -14
SHERIDAN       CLEAR      1  -9  62 W7        30.06F WCI -12
CODY           FAIR       5   0  80 SW8       30.02S WCI  -8
YELLOWSTONE LA PTCLDY    -9 -15  74 CALM      29.90R
SALMON         PTCLDY    19   3  49 SW5       30.10R WCI  12
MULLAN PASS    CLEAR     10   5  80 VRB6      29.99S
SAND POINT     CLEAR     21  16  81 CALM      30.17R
SPOKANE        CLEAR     27  10  49 SW5       30.15R WCI  21
$$

REGIONAL REPORTS...ALBERTA
CITY           SKY/WX    TMP DP  RH WIND       PRES   REMARKS
CALGARY        N/A        5  -8  54 CALM      30.10S
LETHBRIDGE     CLEAR      1  -6  72 SW13      30.18S WCI -17
MEDICINE HAT   CLEAR      1  -4  79 NW2       30.23R
EDMONTON       N/A       -4 -15  58 SE9       30.20S WCI -20
WATERTON GATE  N/A       -6  -9  87 S6         N/A   WCI -19
CARDSTON       N/A        0  -9  65 SW7        N/A   WCI -13
MILK RIVER     N/A       -2  -8  75 NW10       N/A   WCI -18
$$

REGIONAL REPORTS...SASKATCHEWAN
CITY           SKY/WX    TMP DP  RH WIND       PRES   REMARKS
SWIFT CURRENT  CLEAR     -8 -13  78 NW12      30.12R WCI -28
REGINA         N/A      -17 -22  77 NW14      30.14R WCI -40
ASSINIBOIA     N/A       -9 -15  74 NW9        N/A   WCI -26
CORONACH       N/A       -8 -13  78 NW10       N/A   WCI -26

$$




USA.gov is the U.S. government's official web portal to all federal, state and local government web resources and services.